TimeEST,TemperatureF,Dew PointF,Humidity,Sea Level PressureIn,VisibilityMPH,Wind Direction,Wind SpeedMPH,Gust SpeedMPH,PrecipitationIn,Events,Conditions,WindDirDegrees,DateUTC
12:15 AM,28.4,28.4,100,30.43,10.0,Calm,Calm,-,N/A,,Clear,0,2012-12-31 05:15:00
12:35 AM,28.4,26.6,93,30.43,10.0,Calm,Calm,-,N/A,,Clear,0,2012-12-31 05:35:00
12:55 AM,28.4,26.6,93,30.41,10.0,Calm,Calm,-,N/A,,Clear,0,2012-12-31 05:55:00
1:15 AM,28.4,26.6,93,30.40,10.0,Calm,Calm,-,N/A,,Clear,0,2012-12-31 06:15:00
1:35 AM,28.4,26.6,93,30.39,10.0,Calm,Calm,-,N/A,,Clear,0,2012-12-31 06:35:00
1:55 AM,26.6,26.6,100,30.41,10.0,Calm,Calm,-,N/A,,Clear,0,2012-12-31 06:55:00
2:15 AM,26.6,26.6,100,30.41,10.0,Calm,Calm,-,N/A,,Clear,0,2012-12-31 07:15:00
2:35 AM,26.6,24.8,93,30.39,10.0,Calm,Calm,-,N/A,,Clear,0,2012-12-31 07:35:00
2:55 AM,28.4,26.6,93,30.40,10.0,Calm,Calm,-,N/A,,Clear,0,2012-12-31 07:55:00
3:15 AM,26.6,24.8,93,30.40,10.0,Calm,Calm,-,N/A,,Clear,0,2012-12-31 08:15:00
3:35 AM,26.6,24.8,93,30.39,10.0,Calm,Calm,-,N/A,,Clear,0,2012-12-31 08:35:00
3:55 AM,24.8,23.0,93,30.42,10.0,WNW,5.8,-,N/A,,Clear,300,2012-12-31 08:55:00
4:15 AM,26.6,26.6,100,30.41,10.0,Calm,Calm,-,N/A,,Clear,0,2012-12-31 09:15:00
4:35 AM,26.6,24.8,93,30.42,10.0,Calm,Calm,-,N/A,,Clear,0,2012-12-31 09:35:00
4:55 AM,28.4,26.6,93,30.41,10.0,Calm,Calm,-,N/A,,Clear,0,2012-12-31 09:55:00
5:15 AM,26.6,23.0,86,30.42,10.0,Calm,Calm,-,N/A,,Clear,0,2012-12-31 10:15:00
5:55 AM,26.6,23.0,86,30.43,10.0,Calm,Calm,-,N/A,,Clear,0,2012-12-31 10:55:00
6:15 AM,26.6,23.0,86,30.44,10.0,Calm,Calm,-,N/A,,Clear,0,2012-12-31 11:15:00
6:35 AM,26.6,23.0,86,30.44,10.0,Calm,Calm,-,N/A,,Clear,0,2012-12-31 11:35:00
6:55 AM,26.6,26.6,100,30.43,10.0,Calm,Calm,-,N/A,,Clear,0,2012-12-31 11:55:00
7:15 AM,28.4,26.6,93,30.44,10.0,Calm,Calm,-,N/A,,Clear,0,2012-12-31 12:15:00
7:35 AM,26.6,26.6,100,30.43,10.0,Calm,Calm,-,N/A,,Clear,0,2012-12-31 12:35:00
7:55 AM,28.4,26.6,93,30.44,10.0,Calm,Calm,-,N/A,,Clear,0,2012-12-31 12:55:00
8:15 AM,30.2,28.4,93,30.44,10.0,Calm,Calm,-,N/A,,Clear,0,2012-12-31 13:15:00
8:35 AM,32.0,30.2,93,30.45,10.0,NNW,3.5,-,N/A,,Clear,330,2012-12-31 13:35:00
8:55 AM,33.8,32.0,93,30.44,10.0,Calm,Calm,-,N/A,,Clear,0,2012-12-31 13:55:00
9:35 AM,39.2,32.0,75,30.45,10.0,Calm,Calm,-,N/A,,Clear,0,2012-12-31 14:35:00
10:15 AM,44.6,28.4,53,30.42,10.0,Calm,Calm,-,N/A,,Clear,0,2012-12-31 15:15:00
10:35 AM,48.2,26.6,43,30.40,10.0,Calm,Calm,-,N/A,,Clear,0,2012-12-31 15:35:00
10:55 AM,50.0,24.8,37,30.40,10.0,Calm,Calm,-,N/A,,Clear,0,2012-12-31 15:55:00
11:15 AM,50.0,26.6,40,30.40,10.0,Calm,Calm,-,N/A,,Clear,0,2012-12-31 16:15:00
11:35 AM,51.8,28.4,41,30.39,10.0,Calm,Calm,-,N/A,,Clear,0,2012-12-31 16:35:00
11:55 AM,53.6,30.2,41,30.40,10.0,Calm,Calm,-,N/A,,Clear,0,2012-12-31 16:55:00
12:15 PM,55.4,32.0,41,30.37,10.0,West,3.5,-,N/A,,Clear,260,2012-12-31 17:15:00
12:35 PM,55.4,32.0,41,30.35,10.0,WSW,4.6,-,N/A,,Mostly Cloudy,240,2012-12-31 17:35:00
12:55 PM,55.4,32.0,41,30.32,10.0,West,3.5,-,N/A,,Mostly Cloudy,270,2012-12-31 17:55:00
1:15 PM,57.2,33.8,41,30.30,10.0,South,8.1,-,N/A,,Scattered Clouds,170,2012-12-31 18:15:00
1:55 PM,59.0,35.6,42,30.29,10.0,SSW,6.9,-,N/A,,Mostly Cloudy,210,2012-12-31 18:55:00
2:15 PM,59.0,37.4,45,30.28,10.0,SW,8.1,-,N/A,,Mostly Cloudy,230,2012-12-31 19:15:00
2:35 PM,60.8,37.4,42,30.28,10.0,SSW,9.2,-,N/A,,Mostly Cloudy,200,2012-12-31 19:35:00
2:55 PM,60.8,37.4,42,30.27,10.0,South,6.9,-,N/A,,Scattered Clouds,190,2012-12-31 19:55:00
3:15 PM,60.8,37.4,42,30.27,10.0,South,6.9,-,N/A,,Clear,190,2012-12-31 20:15:00
3:35 PM,59.0,39.2,48,30.26,10.0,South,5.8,-,N/A,,Mostly Cloudy,180,2012-12-31 20:35:00
3:55 PM,60.8,41.0,48,30.26,10.0,SW,9.2,-,N/A,,Mostly Cloudy,220,2012-12-31 20:55:00
4:15 PM,59.0,39.2,48,30.25,10.0,South,3.5,-,N/A,,Scattered Clouds,170,2012-12-31 21:15:00
4:35 PM,59.0,41.0,51,30.25,10.0,South,3.5,-,N/A,,Clear,170,2012-12-31 21:35:00
5:15 PM,55.4,41.0,58,30.24,10.0,South,4.6,-,N/A,,Clear,180,2012-12-31 22:15:00
5:35 PM,53.6,41.0,62,30.25,10.0,SSW,3.5,-,N/A,,Clear,200,2012-12-31 22:35:00
5:55 PM,53.6,41.0,62,30.25,10.0,Calm,Calm,-,N/A,,Clear,0,2012-12-31 22:55:00
6:15 PM,50.0,41.0,71,30.26,10.0,Calm,Calm,-,N/A,,Clear,0,2012-12-31 23:15:00
6:35 PM,46.4,41.0,81,30.27,10.0,Calm,Calm,-,N/A,,Clear,0,2012-12-31 23:35:00
6:55 PM,46.4,41.0,81,30.27,10.0,Calm,Calm,-,N/A,,Clear,0,2012-12-31 23:55:00
7:15 PM,46.4,41.0,81,30.27,10.0,Calm,Calm,-,N/A,,Clear,0,2013-01-01 00:15:00
7:35 PM,44.6,41.0,87,30.27,10.0,Calm,Calm,-,N/A,,Scattered Clouds,0,2013-01-01 00:35:00
8:15 PM,46.4,42.8,87,30.25,10.0,Calm,Calm,-,N/A,,Overcast,0,2013-01-01 01:15:00
8:35 PM,48.2,42.8,82,30.25,10.0,Calm,Calm,-,N/A,,Overcast,0,2013-01-01 01:35:00
8:55 PM,48.2,42.8,82,30.25,10.0,Calm,Calm,-,N/A,,Overcast,0,2013-01-01 01:55:00
9:15 PM,50.0,42.8,76,30.23,10.0,South,3.5,-,N/A,,Overcast,180,2013-01-01 02:15:00
9:35 PM,50.0,42.8,76,30.24,10.0,South,4.6,-,N/A,,Overcast,190,2013-01-01 02:35:00
9:55 PM,50.0,42.8,76,30.24,10.0,SSW,4.6,-,N/A,,Overcast,210,2013-01-01 02:55:00
10:15 PM,50.0,42.8,76,30.24,10.0,SSW,4.6,-,N/A,,Overcast,210,2013-01-01 03:15:00
10:35 PM,50.0,42.8,76,30.23,10.0,SSW,4.6,-,N/A,,Overcast,200,2013-01-01 03:35:00
10:55 PM,50.0,42.8,76,30.23,10.0,SSW,5.8,-,N/A,,Overcast,200,2013-01-01 03:55:00
11:15 PM,50.0,44.6,82,30.22,10.0,SSW,4.6,-,N/A,,Overcast,200,2013-01-01 04:15:00
11:35 PM,50.0,44.6,82,30.21,10.0,SSW,4.6,-,N/A,,Overcast,200,2013-01-01 04:35:00
11:55 PM,50.0,44.6,82,30.20,10.0,SSW,4.6,-,N/A,,Overcast,200,2013-01-01 04:55:00